星链-30508 (STARLINK-30508 )

导读

STARLINK-30508是美国SpaceX公司星链(Starlink)星座的成员卫星,于2023年9月30日发射。作为低轨宽带通信卫星,它运行在近地轨道,搭载相控阵天线与激光星间链路,采用氪离子霍尔推进器,具备自主轨道维持与避碰能力。旨在为全球提供高速低延迟宽带互联网服务,尤其覆盖偏远地区,是星链大规模星座部署中的一颗量产卫星,退役后将主动离轨再入大气层销毁。

基本信息
目录编号:
57979
目录名称:
STARLINK-30508
国际标识:
2023-151R
轨道中心:
EARTH
卫星名称:
星链-30508
卫星全名:
星链-30508 (STARLINK-30508 )
卫星状态:
在轨 (已飞行1070 天)
发射日期:
2023-09-30 UTC
国别 :
美国 (US)
星等 :
--
轨道信息
数据来源 国际轨道数据 AOE轨道数据
星历时间 2026-09-04T00:22:40+0800
14小时前
查看轨道信息
2026-09-03T12:00:00+0800
1天前
查看轨道信息
半长轴 6861.177km 6861.177km
偏心率 0.0000835 0.000001
轨道倾角 43.004° 43.005°
近地点辐角 276.264° 55.319°
升交点赤经 65.592° 68.507°
平近点角 83.812° 345.241°
近地点 482.467km 483.033km
远地点 483.613km 483.047km
周期 94.267分钟 94.267分钟
每日圈数 15.275831 15.275831
详细信息
固有亮度:
5
最大亮度:
0.3
卫星平台:
Starlink v2.0 mini
覆盖范围:
全球
运营商:
太空探索技术公司
运营商所在国:
美国
制造商(研发单位):
太空探索技术公司
制造商所在国:
美国
使用方式:
暂无
卫星简介
星链(Starlink)计划是由太空探索技术公司(SpaceX)提出的一个巨型低轨卫星互联网星座项目,计划在2019年至2024年间在太空搭建由约1.2万颗卫星组成的“星链”网络,其中1584颗将部署在地球上空550千米处的近地轨道,并从2020年开始工作。该卫星仍在工作。
2D轨道图
3D轨道图
轨道高度分析图
轨道倾角分析图
轨道综合分析图
查看轨道综合分析图
交会数据列表
事件ID 空间交会对象 最接近时刻(TCA) 交会距离 交会风险概率(CRP) 交会风险指数(CRI) 操作
CDM_260905-013905-797906-717321
2026-09-05T
01:39:32+0000
0.570 km
远距离
6.164074E-5 中风险 0.71
CDM_260904-105405-797906-798922
2026-09-04T
10:54:46+0000
0.775 km
远距离
3.019864E-5 中风险 0.65
CDM_260904-210605-797906-798922
2026-09-04T
21:06:45+0000
0.865 km
远距离
2.098996E-5 中风险 0.61
CDM_260904-122805-797906-798922
2026-09-04T
12:28:55+0000
1.331 km
极远距离
4.816464E-6 低风险 0.49
CDM_260905-070905-797906-717321
2026-09-05T
07:09:04+0000
1.433 km
极远距离
3.016431E-6 低风险 0.45
CDM_260904-193205-797906-798921
2026-09-04T
19:32:36+0000
1.901 km
极远距离
1.672851E-6 低风险 0.39
CDM_260904-092005-797906-798921
2026-09-04T
09:20:37+0000
2.804 km
极远距离
7.987945E-7 极低风险 0.33
CDM_260905-053405-797906-717321
2026-09-05T
05:34:55+0000
2.616 km
极远距离
7.261592E-7 极低风险 0.32
CDM_260905-000505-797906-717321
2026-09-05T
00:05:23+0000
2.767 km
极远距离
6.736567E-7 极低风险 0.32